Simultaneous Nadir Overpasses (SNOs) Predictions

Prediction of SNOs between NPP and LANDSAT-9 Satellite Orbit:

Table of predicted SNOs for the next 14.0 days since TLE Epoch: 8/17/2024
Index Date (NPP) Time (NPP) Lat,Lon (NPP) SZA (NPP ) Date (LANDSAT-9) Time (LANDSAT-9) Lat,Lon (LANDSAT-9) SZA (LANDSAT-9 ) Distance(km) Time Diff (sec)
1 08/17/2024 05:42:30 71.05, 89.18 57.83 08/17/2024 05:43:36 70.92, 91.65 57.61 90.80 66
2 08/17/2024 06:32:55 -70.08,-101.94 123.19 08/17/2024 06:33:19 -70.10,-101.94 123.17 2.52 24
3 08/17/2024 07:23:39 69.95, 65.56 56.69 08/17/2024 07:22:47 69.95, 65.49 56.70 2.79 52
4 08/19/2024 21:59:10 70.28,-153.80 57.88 08/19/2024 22:00:22 70.21,-153.55 57.79 12.49 72
5 08/19/2024 22:49:49 -70.04, 13.90 122.36 08/19/2024 22:49:53 -70.05, 13.85 122.36 1.82 4
6 08/19/2024 23:40:33 69.92,-178.62 57.53 08/19/2024 23:39:20 69.95,-178.65 57.56 2.97 73
7 08/22/2024 14:16:01 70.11, -37.76 58.60 08/22/2024 14:16:55 70.13, -37.79 58.60 2.03 54
8 08/22/2024 15:06:43 -70.02, 129.69 121.49 08/22/2024 15:06:25 -70.02, 129.69 121.49 0.10 18
9 08/22/2024 15:57:12 69.11, -61.67 57.58 08/22/2024 15:56:05 69.20, -63.78 57.74 84.12 67
10 08/25/2024 06:32:53 70.07, 78.08 59.46 08/25/2024 06:33:25 70.08, 78.02 59.47 2.41 32
11 08/25/2024 07:23:35 -69.97,-114.46 120.63 08/25/2024 07:22:55 -69.97,-114.50 120.63 1.41 40
12 08/27/2024 21:59:11 -70.62, 25.68 119.05 08/27/2024 22:00:21 -70.50, 26.87 119.21 46.34 70
13 08/27/2024 22:49:46 70.05,-166.11 60.37 08/27/2024 22:49:54 70.06,-166.12 60.38 0.89 8
14 08/27/2024 23:40:28 -69.95, 1.36 119.72 08/27/2024 23:39:24 -69.95, 1.36 119.71 0.76 64
15 08/30/2024 14:15:55 -70.15, 142.21 118.59 08/30/2024 14:16:55 -70.13, 142.23 118.62 2.08 60
16 08/30/2024 15:06:38 70.00, -50.26 61.27 08/30/2024 15:06:22 70.01, -50.30 61.28 2.11 16
17 08/30/2024 15:57:10 -69.36, 117.99 119.38 08/30/2024 15:56:01 -69.42, 116.52 119.28 58.02 69



Historial Predications of SNOs between NPP and LANDSAT-9
